Preview of NWS' New Version of Forecast
This preview is not operational and should not be used for support decisions.

Regional Weather Roundup (RWR)

Issued by National Weather Service (NWS)

                            
000
ASUS42 KTBW 180016
RWRFL 
FLORIDA REGIONAL WEATHER ROUNDUP
NATIONAL WEATHER SERVICE TAMPA BAY RUSKIN FL
800 PM EDT WED APR 17 2019

NOTE: "FAIR" INDICATES FEW OR NO CLOUDS BELOW 12,000 FEET WITH NO
SIGNIFICANT WEATHER AND/OR OBSTRUCTIONS TO VISIBILITY.

FLZ001>010-012>015-112-114-115-180100-
PANHANDLE FLORIDA
  
CITY           SKY/WX    TMP DP  RH WIND       PRES   REMARKS
PENSACOLA      MOCLDY    72  69  90 SE8       30.01F                  
PENSACOLA NAS  MOCLDY    71  69  93 E10       30.00F                  
MILTON NAS     MOCLDY    72  63  73 SE9       30.01F                  
CRESTVIEW      FAIR      73  63  70 S8        30.03F                  
DUKE FIELD     FAIR      72  66  82 S8        30.02F                  
VALPARAISO     CLOUDY    71  67  85 SE8       30.02F                  
MARY ESTHER    PTCLDY    71  66  85 SE7       30.00F                  
PANAMA CITY    FAIR      73  64  73 S6        30.03F                  
TYNDALL AFB    FAIR      72  63  72 S10       30.02F                  
APALACHICOLA   FAIR      70  63  78 E3        30.03F                  

STATION/POSITION SKY/WX   TEMP    WIND        PRES    WAVE   SWELL
                          AIR SEA DIR/SP/G            HT/PER HT/PER
                          (F)     (DEG/KT/KT) (MB)    (FT/S) (FT/S)
30.1N   87.6W                                 1016.2F
29.2N   88.2W                      90/ 10/ 12 1015.7F   2/ 4   2/ 6
PANAMA CITY BEAC           71 72  150/ 11/ 12 1017.2F
TOWER C          NOT AVBL

$$
FLZ011-016>038-118-127-128-134-139-239-180100-
NORTH FLORIDA
  
CITY           SKY/WX    TMP DP  RH WIND       PRES   REMARKS
MARIANNA       FAIR      79  59  50 S6        30.01S                  
TALLAHASSEE    CLOUDY    76  58  53 S3        30.03F                  
PERRY          FAIR      72  61  67 W5        30.04S                  
LIVE OAK       CLEAR     79  59  50 CALM      30.02R                  
CROSS CITY     FAIR      73  62  68 W6        30.03S                  
LAKE CITY      FAIR      72  59  64 SE5       30.03S                  
GAINESVILLE    FAIR      77  61  57 E7        30.05S                  
PALATKA        FAIR      73  64  73 E8        30.05S                  
MAYPORT NAS    MOCLDY    72  65  78 E8        30.06F                  
JACKSONVILLE   MOCLDY    72  61  68 E9        30.05S                  
JAX NAS        MOCLDY    75  62  64 E14       30.06S                  
JAX CECIL      CLEAR     73  63  68 E13       30.04F                  
FERNANDINA BEA FAIR      70  65  85 E8        30.06F                  
ST AUGUSTINE   FAIR      72  66  81 E8        30.06F                  
PALM COAST     FAIR      72  61  69 SE5       30.05F                  

STATION/POSITION SKY/WX   TEMP    WIND        PRES    WAVE   SWELL
                          AIR SEA DIR/SP/G            HT/PER HT/PER
                          (F)     (DEG/KT/KT) (MB)    (FT/S) (FT/S)
SHELL POINT      NOT AVBL
KEATON BEACH               72     290/  5/  7 1017.1S
CEDAR KEY                  73     330/  3/  5 1016.5F
FERNANDINA                 73 68  110/  3/  6 1018.8F
30.7N   81.3W                 69                N/A     2/ 8
MAYPORT                    72 68  110/  5/ 10 1018.0F
31.4N   80.9W              69 69  120/  8/ 10 1018.2F   2/ 8   2/ 8
ST AUGUSTINE               72 72  100/  8/  9 1017.9F

$$
FLZ040-043>046-052-053-057-058-063-144-180100-
INTERIOR CENTRAL FLORIDA
  
CITY           SKY/WX    TMP DP  RH WIND       PRES   REMARKS
OCALA          FAIR      78  61  55 E6        30.03S                  
LEESBURG       FAIR      76  60  57 E13       30.04S                  
SANFORD        CLOUDY    74  62  66 E8        30.05S                  
ORLANDO EXEC   FAIR      75  58  55 SE10      30.05S                  
ORLANDO INTL   MOCLDY    75  58  55 E10       30.06R                  
KISSIMMEE      FAIR      75  61  61 E10       30.06S                  
WINTER HAVEN   FAIR      77  59  53 E12       30.05S                  
LAKELAND       PTCLDY    77  57  50 E10       30.03F                  
BARTOW         MOCLDY    77  59  53 E10       30.03S                  
SEBRING        MOCLDY    75  61  60 E10       30.04S                  
OKEECHOBEE     FAIR      72  59  64 E5        30.04S                  

$$
FLZ041-047-054-059-064-141-147-180100-
EAST CENTRAL FLORIDA
  
CITY           SKY/WX    TMP DP  RH WIND       PRES   REMARKS
DAYTONA BEACH  CLOUDY    74  64  71 SE5       30.06S                  
DELAND         FAIR      73  61  64 SE10      30.05S                  
NEW SMYRNA BEA PTCLDY    73  63  68 SE6       30.07F                  
JFK SPACE CTR  FAIR      74  63  69 SE6       30.06R                  
TITUSVILLE     PTCLDY    77  63  61 SE7       30.07S                  
CAPE CANAVERAL FAIR      73  59  61 SE9       30.05S                  
PATRICK AFB    FAIR      76  62  63 E14       30.05S                  
MELBOURNE      MOCLDY    77  61  57 E13       30.05F                  
VERO BEACH     FAIR      75  63  66 E12       30.05S                  
FT PIERCE      MOCLDY    75  61  61 E12       30.05R                  
STUART         PTCLDY    75  59  57 SE12      30.06R                  

STATION/POSITION SKY/WX   TEMP    WIND        PRES    WAVE   SWELL
                          AIR SEA DIR/SP/G            HT/PER HT/PER
                          (F)     (DEG/KT/KT) (MB)    (FT/S) (FT/S)
28.5N   80.2W              76     110/ 12/ 14 1018.1F   3/ 8   3/ 8
28.9N   78.5W              74 77   90/ 14/ 17 1018.9S   4/ 9   3/ 9
TRIDENT PIER               74 78  100/  6/ 10 1019.1F
28.4N   80.5W                 77                N/A     2/ 4
27.5N   80.2W                 76                N/A     3/ 8

$$
FLZ050-056-061-142-242-148-248-149-249-151-251-155-255-
160-260-180100-
WEST CENTRAL FLORIDA
  
CITY           SKY/WX    TMP DP  RH WIND       PRES   REMARKS
CRYSTAL RIVER  FAIR      73  64  73 W5        30.02S                  
INVERNESS      FAIR      77  64  65 CALM      30.03S                  
BROOKSVILLE    FAIR      77  59  53 E6        30.02F                  
CLEARWATER AIR FAIR      73  63  68 N7        30.01R                  
ST PETE CLEARW FAIR      75  63  66 NW10      30.00S                  
TAMPA INTL     MOCLDY    82  57  42 E7        30.01S                  
TAMPA EXEC     FAIR      77  59  53 E3        30.02S                  
PLANT CITY     FAIR      79  59  50 E7        30.04S                  
MACDILL AFB    PTCLDY    79  60  50 SE8       30.00S                  
PETER O KNIGHT FAIR      81  61  50 E6        30.01S                  
ST PETERSBURG  FAIR      80  66  62 E10       29.99S                  
SARASOTA       FAIR      75  65  70 NW6       29.99S                  
VENICE         MOCLDY    77  66  69 NW7       30.01S                  

STATION/POSITION SKY/WX   TEMP    WIND        PRES    WAVE   SWELL
                          AIR SEA DIR/SP/G            HT/PER HT/PER
                          (F)     (DEG/KT/KT) (MB)    (FT/S) (FT/S)
27.3N   84.2W                 76                N/A     2/ 5
CLEARWATER BEACH           75 78  340/  9/ 11 1016.3F
MIDDLE TAMPA BAY           77     290/  8/  9 1016.0F
VENICE                     76 77  330/ 10/ 10 1016.0F

$$
FLZ066-069-070-075>078-162-262-165-265-180100-
SOUTHWEST FLORIDA AND KEYS
  
CITY           SKY/WX    TMP DP  RH WIND       PRES   REMARKS
PUNTA GORDA    FAIR      77  60  55 E9        30.02R                  
FT MYERS       CLOUDY    79  61  53 E9        30.00R                  
SOUTHWEST INTL MOCLDY    79  60  52 E14       30.01R                  
NAPLES         FAIR      78  69  73 NW6       30.00R                  
MARCO ISLAND   CLOUDY    79  67  66 W6        30.02R                  
IMMOKALEE      CLOUDY    77  63  61 E9        30.00R                  
MARATHON       FAIR      80  63  55 E12       30.00R                  
KEY WEST NAS   FAIR      78  65  63 E15       30.00R                  
KEY WEST INTL  FAIR      78  64  61 E15       30.00R                  

STATION/POSITION SKY/WX   TEMP    WIND        PRES    WAVE   SWELL
                          AIR SEA DIR/SP/G            HT/PER HT/PER
                          (F)     (DEG/KT/KT) (MB)    (FT/S) (FT/S)
NAPLES                     78 81  270/  7/  8 1015.9R
DRY TORTUGAS               77     120/ 16/ 18 1015.5F
SAND KEY                   76                 1015.8R
SOMBRERO KEY               76                 1015.2R

$$
FLZ067-068-071>074-168-172>174-180100-
SOUTHEAST FLORIDA 
  
CITY           SKY/WX    TMP DP  RH WIND       PRES   REMARKS
W PALM BEACH   MOCLDY    76  61  59 E9        30.04R                  
BOCA RATON     PTCLDY    75  61  60 SE8       30.04R                  
FT LAUDER-EXEC FAIR      77  61  57 E12       30.02S                  
FT LAUDERDALE  FAIR      76  60  57 E14       30.02R                  
POMPANO BEACH  FAIR      77  60  55 E10       30.03R                  
PEMBROKE PINES FAIR      75  61  61 E7        30.04R                  
OPA LOCKA      FAIR      76  62  62 E9        30.03R                  
MIAMI          FAIR      76  61  59 E14       30.03R                  
WEST KENDALL   FAIR      75  61  61 E13       30.02R                  
HOMESTEAD      FAIR      74  62  64 E6        30.01S                  

STATION/POSITION SKY/WX   TEMP    WIND        PRES    WAVE   SWELL
                          AIR SEA DIR/SP/G            HT/PER HT/PER
                          (F)     (DEG/KT/KT) (MB)    (FT/S) (FT/S)
PORT EVERGLADES            77      90/  7/ 12 1016.8R
VIRGINIA KEY               77 81   70/ 10/ 13 1016.0R
LAKE WORTH                 76 79   90/ 10/ 13 1018.1R
SETTLEMENT POINT           75      80/ 15/ 18 1017.4R

$$